Regional Weather Roundup
Issued by NWS Green Bay, WI

Home | Current Version | Previous Version | Graphics & Text | Print | Product List | Glossary Off
Versions: 1 2 3 4 5 6 7 8 9 10 11 12 13 14 15 16 17 18 19 20 21 22 23 24 25 26 27 28 29 30 31 32 33 34 35 36 37 38 39 40 41 42 43 44 45 46 47 48 49 50

000
ASUS43 KGRB 262201
RWRGRB

NORTH-CENTRAL AND NORTHEAST WISCONSIN REGIONAL WEATHER ROUNDUP
NATIONAL WEATHER SERVICE GREEN BAY WI
500 PM CDT MON JUN 26 2017

WIZ005-009-010>012-018-019-262300-
NORTH CENTRAL WISCONSIN

CITY           SKY/WX    TMP DP  RH WIND       PRES   REMARKS
IRONWOOD       SUNNY     64  46  52 NW12      30.05F
MANITOWISH WTR NOT AVBL
ARBOR VITAE    NOT AVBL
EAGLE RIVER    NOT AVBL
LAND O LAKES   MOSUNNY   63  40  44 N9G17     30.05F
RHINELANDER    PTSUNNY   61  45  55 VRB5      30.05F
PHILLIPS       LGT RAIN  59  47  64 NW7       30.06S
ANTIGO         NOT AVBL
TOMAHAWK       NOT AVBL
MERRILL        MOSUNNY   62  45  52 N3        30.06F
$$

WIZ013-073-262300-
NORTHEAST WISCONSIN

CITY           SKY/WX    TMP DP  RH WIND       PRES   REMARKS
IRON MOUNTAIN  PTSUNNY   61  50  67 NW6       30.01F
MARINETTE      PTSUNNY   58  52  80 NW5       30.02R
$$

WIZ017-030-035>037-045-262300-
CENTRAL WISCONSIN

CITY           SKY/WX    TMP DP  RH WIND       PRES   REMARKS
MEDFORD        NOT AVBL
WAUSAU         PTSUNNY   62  41  46 N13G21    30.05S
MOSINEE        PTSUNNY   63  46  55 NW13      30.08F
MARSHFIELD     SUNNY     65  45  48 N9        30.06F
WISC RAPIDS    MOSUNNY   66  45  46 N15       30.08F
STEVENS POINT  NOT AVBL
WAUPACA        PTSUNNY   64  46  51 N13G20    30.05R
SHAWANO        NOT AVBL
CLINTONVILLE   CLOUDY    61  46  59 N14G20    30.03F
WAUTOMA        CLOUDY    63  45  51 NW12G20   30.06F
$$

WIZ038-039-048-051-262300-
FOX VALLEY

CITY           SKY/WX    TMP DP  RH WIND       PRES   REMARKS
NWS GREEN BAY  LGT RAIN  57  55  93 NW10      30.03R
APPLETON       PTSUNNY   54  48  82 NW17      30.03S
OSHKOSH        MOSUNNY   63  47  55 NW16      30.03S
FOND DU LAC    PTSUNNY   61  44  53 NW13      30.04S
$$

WIZ022-050-052-262300-
EAST CENTRAL WISCONSIN

CITY           SKY/WX    TMP DP  RH WIND       PRES   REMARKS
EPHRAIM        NOT AVBL
WASHINGTON ISL NOT AVBL
STURGEON BAY     N/A     58  53  84 N12         N/A
MANITOWOC      NOT AVBL
SHEBOYGAN      MOSUNNY   62  50  64 NW15G23   30.02F
$$

LMZ563-521-522-541>543-262300-
LAKESHORE

STATION/POSITION TIME  TEMP    WIND        PRES    VSBY  WAVE
                       AIR SEA DIR/SP/G                  HT/PER
                 (UTC) (F)     (DEG/KT/KT) (MB)    (MI)  (FT/S)
SHEBOYGAN LKSHOR 2100   59     280/ 16/ 18 1016.4F
KEWAUNEE LKSHORE 2130   59     310/  6/ 10 1015.4F
NORTHPORT PIER   2140   57     340/ 16/ 19 1015.6R
N MID LAKE BUOY  2050   56 56  340/ 14/ 16 1015.4R         2/ 3
S GREEN BAY BUOY 2130   57     360/  8/  8 1016.1R
CHAMBERS ISLAND  2140   59     340/  9/ 11 1015.6S
MENOMINEE LKSHOR 2124          340/  7/  8 1015.2
$$




USA.gov is the U.S. government's official web portal to all federal, state and local government web resources and services.